When you browse on this site, cookies collect data to enhance your experience and personalize the content and advertising you see.
Visit our Privacy Policy to learn more. By continuing to use the site, you agree to this use of cookies and data.
  • In United Kingdom
  • List of Countries
  • For 7 days
  • Water Temperature
  • Weather Map
  • Weather Widgets
  • user-avatar
    Login

    Hourly Weather Pechyvody

    Today, 20 September, Friday

    Time Temperature Precipitation Wind Pressure Humidity
    00:00 +4°C° 0 mm 3 mps 745 mmHg 92%
    01:00 +4°C° 0 mm 3 mps 745 mmHg 93%
    02:00 +4°C° 0 mm 3 mps 746 mmHg 94%
    03:00 +4°C° 0 mm 3 mps 746 mmHg 94%
    04:00 +3°C° 0 mm 3 mps 746 mmHg 95%
    05:00 +3°C° 0 mm 3 mps 745 mmHg 95%
    06:00 +4°C° 0 mm 4 mps 746 mmHg 92%
    07:00 +5°C° 0 mm 4 mps 746 mmHg 89%
    08:00 +5°C° 0 mm 5 mps 746 mmHg 86%
    09:00 +6°C° 0 mm 5 mps 746 mmHg 83%
    10:00 +6°C° 0 mm 5 mps 746 mmHg 80%
    11:00 +7°C° 0 mm 6 mps 746 mmHg 77%
    12:00 +8°C° 0 mm 6 mps 746 mmHg 71%
    13:00 +9°C° 0 mm 5 mps 746 mmHg 65%
    14:00 +9°C° 0 mm 5 mps 746 mmHg 59%
    15:00 +9°C° 0.1 mm 5 mps 746 mmHg 58%
    16:00 +10°C° 0.1 mm 4 mps 746 mmHg 57%
    17:00 +10°C° 0.1 mm 4 mps 746 mmHg 56%
    18:00 +8°C° 0 mm 4 mps 746 mmHg 62%
    19:00 +7°C° 0 mm 3 mps 746 mmHg 69%
    20:00 +4°C° 0 mm 3 mps 747 mmHg 75%
    21:00 +4°C° 0 mm 3 mps 747 mmHg 78%
    22:00 +3°C° 0 mm 3 mps 747 mmHg 81%
    23:00 +3°C° 0 mm 3 mps 747 mmHg 83%

    Tomorrow, 21 September, Saturday

    Time Temperature Precipitation Wind Pressure Humidity
    00:00 +2°C° 0 mm 3 mps 747 mmHg 84%
    01:00 +2°C° 0 mm 3 mps 748 mmHg 85%
    02:00 +1°C° 0 mm 3 mps 748 mmHg 86%
    03:00 +1°C° 0 mm 3 mps 748 mmHg 86%
    04:00 +2°C° 0 mm 2 mps 748 mmHg 86%
    05:00 +2°C° 0 mm 2 mps 748 mmHg 86%
    06:00 +3°C° 0 mm 2 mps 748 mmHg 80%
    07:00 +4°C° 0 mm 2 mps 748 mmHg 75%
    08:00 +5°C° 0 mm 2 mps 748 mmHg 69%
    09:00 +7°C° 0 mm 3 mps 748 mmHg 65%
    10:00 +8°C° 0 mm 4 mps 748 mmHg 61%
    11:00 +10°C° 0 mm 5 mps 748 mmHg 57%
    12:00 +9°C° 0 mm 5 mps 747 mmHg 63%
    13:00 +9°C° 0 mm 5 mps 747 mmHg 70%
    14:00 +8°C° 0 mm 5 mps 747 mmHg 77%
    15:00 +8°C° 0.1 mm 5 mps 746 mmHg 80%
    16:00 +8°C° 0.1 mm 5 mps 746 mmHg 83%
    17:00 +8°C° 0.1 mm 5 mps 746 mmHg 86%
    18:00 +9°C° 0.1 mm 5 mps 746 mmHg 86%
    19:00 +9°C° 0.1 mm 5 mps 746 mmHg 86%
    20:00 +11°C° 0.1 mm 4 mps 746 mmHg 87%
    21:00 +11°C° 0.1 mm 4 mps 746 mmHg 87%
    22:00 +11°C° 0.1 mm 4 mps 746 mmHg 87%
    23:00 +11°C° 0.1 mm 4 mps 745 mmHg 88%

    Day after tomorrow, 22 September, Sunday

    Time Temperature Precipitation Wind Pressure Humidity
    00:00 +11°C° 0 mm 4 mps 745 mmHg 87%
    01:00 +11°C° 0 mm 4 mps 745 mmHg 86%
    02:00 +11°C° 0 mm 4 mps 745 mmHg 85%
    03:00 +11°C° 0 mm 4 mps 745 mmHg 87%
    04:00 +10°C° 0 mm 4 mps 745 mmHg 89%
    05:00 +8°C° 0 mm 4 mps 745 mmHg 91%
    06:00 +10°C° 0 mm 4 mps 745 mmHg 88%
    07:00 +9°C° 0 mm 5 mps 745 mmHg 85%
    08:00 +10°C° 0 mm 5 mps 745 mmHg 81%
    09:00 +13°C° 0 mm 5 mps 745 mmHg 76%
    10:00 +15°C° 0 mm 5 mps 745 mmHg 70%
    11:00 +16°C° 0 mm 5 mps 745 mmHg 65%
    12:00 +17°C° 0 mm 5 mps 745 mmHg 62%
    13:00 +19°C° 0 mm 5 mps 744 mmHg 60%
    14:00 +20°C° 0 mm 5 mps 744 mmHg 57%
    15:00 +20°C° 0 mm 5 mps 744 mmHg 59%
    16:00 +19°C° 0 mm 4 mps 743 mmHg 62%
    17:00 +19°C° 0 mm 3 mps 743 mmHg 65%
    18:00 +17°C° 0 mm 3 mps 743 mmHg 71%
    19:00 +14°C° 0 mm 3 mps 743 mmHg 78%
    20:00 +12°C° 0 mm 3 mps 743 mmHg 85%
    21:00 +12°C° 0 mm 3 mps 743 mmHg 87%
    22:00 +12°C° 0 mm 2 mps 743 mmHg 89%
    23:00 +12°C° 0 mm 2 mps 743 mmHg 91%

    23 September, Monday

    Time Temperature Precipitation Wind Pressure Humidity
    00:00 +10°C° 0 mm 2 mps 744 mmHg 92%
    01:00 +10°C° 0 mm 2 mps 744 mmHg 93%
    02:00 +11°C° 0 mm 1 mps 744 mmHg 94%
    03:00 +9°C° 0 mm 2 mps 744 mmHg 94%
    04:00 +9°C° 0 mm 2 mps 744 mmHg 95%
    05:00 +8°C° 0 mm 3 mps 744 mmHg 96%
    06:00 +9°C° 0 mm 3 mps 744 mmHg 92%
    07:00 +10°C° 0 mm 3 mps 744 mmHg 88%
    08:00 +10°C° 0 mm 4 mps 744 mmHg 84%
    09:00 +11°C° 0 mm 4 mps 745 mmHg 79%
    10:00 +12°C° 0 mm 4 mps 745 mmHg 75%
    11:00 +13°C° 0 mm 4 mps 745 mmHg 71%
    12:00 +14°C° 0 mm 4 mps 744 mmHg 69%
    13:00 +15°C° 0 mm 4 mps 744 mmHg 67%
    14:00 +17°C° 0 mm 4 mps 743 mmHg 65%
    15:00 +15°C° 0 mm 4 mps 743 mmHg 65%
    16:00 +15°C° 0 mm 4 mps 743 mmHg 66%
    17:00 +15°C° 0 mm 4 mps 742 mmHg 66%
    18:00 +13°C° 0 mm 4 mps 742 mmHg 70%
    19:00 +12°C° 0 mm 4 mps 742 mmHg 73%
    20:00 +10°C° 0 mm 4 mps 742 mmHg 77%
    21:00 +10°C° 0 mm 3 mps 742 mmHg 76%
    22:00 +10°C° 0 mm 3 mps 742 mmHg 76%
    23:00 +9°C° 0 mm 3 mps 742 mmHg 75%

    24 September, Tuesday

    Time Temperature Precipitation Wind Pressure Humidity
    00:00 +9°C° 0 mm 3 mps 742 mmHg 74%
    01:00 +9°C° 0 mm 3 mps 742 mmHg 74%
    02:00 +8°C° 0 mm 3 mps 742 mmHg 73%
    03:00 +8°C° 0 mm 3 mps 741 mmHg 72%
    04:00 +8°C° 0 mm 3 mps 741 mmHg 70%
    05:00 +8°C° 0 mm 3 mps 741 mmHg 69%
    06:00 +7°C° 0 mm 4 mps 741 mmHg 66%
    07:00 +8°C° 0 mm 4 mps 741 mmHg 63%
    08:00 +10°C° 0 mm 4 mps 741 mmHg 59%
    09:00 +12°C° 0 mm 4 mps 741 mmHg 57%
    10:00 +13°C° 0 mm 4 mps 741 mmHg 54%
    11:00 +15°C° 0 mm 4 mps 742 mmHg 51%
    12:00 +17°C° 0 mm 4 mps 741 mmHg 51%
    13:00 +18°C° 0 mm 4 mps 741 mmHg 50%
    14:00 +19°C° 0 mm 3 mps 741 mmHg 49%
    15:00 +18°C° 0 mm 3 mps 741 mmHg 52%
    16:00 +18°C° 0 mm 3 mps 740 mmHg 56%
    17:00 +17°C° 0 mm 3 mps 740 mmHg 59%
    18:00 +14°C° 0 mm 3 mps 740 mmHg 63%
    19:00 +12°C° 0 mm 3 mps 741 mmHg 67%
    20:00 +11°C° 0 mm 3 mps 741 mmHg 71%
    21:00 +10°C° 0 mm 3 mps 741 mmHg 73%
    22:00 +9°C° 0 mm 3 mps 741 mmHg 74%
    23:00 +8°C° 0 mm 3 mps 741 mmHg 75%

    25 September, Wednesday

    Time Temperature Precipitation Wind Pressure Humidity
    00:00 +8°C° 0 mm 2 mps 741 mmHg 77%
    01:00 +7°C° 0 mm 2 mps 741 mmHg 79%
    02:00 +7°C° 0 mm 2 mps 741 mmHg 81%
    03:00 +6°C° 0 mm 2 mps 741 mmHg 84%
    04:00 +6°C° 0 mm 2 mps 741 mmHg 87%
    05:00 +6°C° 0 mm 2 mps 741 mmHg 90%
    06:00 +7°C° 0 mm 2 mps 741 mmHg 87%
    07:00 +7°C° 0 mm 2 mps 741 mmHg 84%
    08:00 +8°C° 0 mm 2 mps 741 mmHg 81%
    09:00 +10°C° 0 mm 2 mps 742 mmHg 75%
    10:00 +12°C° 0 mm 3 mps 742 mmHg 68%
    11:00 +14°C° 0 mm 3 mps 742 mmHg 62%
    12:00 +16°C° 0 mm 3 mps 742 mmHg 60%
    13:00 +17°C° 0 mm 3 mps 742 mmHg 59%
    14:00 +17°C° 0 mm 3 mps 741 mmHg 58%
    15:00 +17°C° 0 mm 3 mps 741 mmHg 62%
    16:00 +16°C° 0 mm 3 mps 741 mmHg 66%
    17:00 +15°C° 0 mm 2 mps 741 mmHg 69%
    18:00 +13°C° 0 mm 3 mps 741 mmHg 74%
    19:00 +12°C° 0 mm 3 mps 742 mmHg 78%
    20:00 +11°C° 0 mm 3 mps 742 mmHg 82%
    21:00 +10°C° 0 mm 3 mps 742 mmHg 82%
    22:00 +9°C° 0 mm 3 mps 742 mmHg 81%
    23:00 +9°C° 0 mm 3 mps 742 mmHg 80%
    Show more